Weather Roundup
Issued by NWS Chicago, IL

Home | Current Version | Previous Version | Graphics & Text | Print | Product List | Glossary On
Versions: 1 2 3 4 5 6 7 8 9 10 11 12 13 14 15 16 17 18 19 20 21 22 23 24 25 26 27 28 29 30 31 32 33 34 35 36 37 38 39 40 41 42 43 44 45 46 47 48 49 50
000
NZUS59 KLOT 260803
HRRLOT

CHICAGO AREA WEATHER ROUNDUP
NATIONAL WEATHER SERVICE CHICAGO/ROMEOVILLE IL
300 AM CDT WED APR 26 2017

NOTE: "FAIR" INDICATES FEW OR NO CLOUDS BELOW 12,000 FEET WITH NO
SIGNIFICANT WEATHER AND/OR OBSTRUCTIONS TO VISIBILITY.

* THESE STATIONS ARE NOT UNDER NWS QUALITY CONTROL. THEY ALSO MAY NOT
  REPORT WEATHER SUCH AS PRECIPITATION OR FOG.

ILZ005-006-012>014-019>023-260900-
NORTHEAST ILLINOIS

CITY           SKY/WX    TMP DP  RH WIND       PRES   REMARKS
OHARE          CLOUDY    67  54  63 S14       29.49F
MIDWAY         CLOUDY    68  55  63 S13       29.50F
AURORA         CLOUDY    66  56  70 S15       29.49F
LANSING*       CLOUDY    64  57  77 S9        29.53F
JOLIET*        CLOUDY    67  57  69 S8        29.51S
WAUKEGAN       MOCLDY    57  51  80 SE7       29.49F
DUPAGE AIRPORT CLOUDY    65  56  72 S12       29.49F
WHEELING       CLOUDY    67  56  67 S12       29.50F
KANKAKEE*      MOCLDY    65  55  68 S13       29.52F
MORRIS*        CLOUDY    65  55  69 S13       29.48S
NORTHERLY ISL    N/A     64  53  67 SE8         N/A
$$

WIZ051-052-058>065-066-070>072-260900-
SOUTHEAST WISCONSIN

CITY           SKY/WX    TMP DP  RH WIND       PRES   REMARKS
MILWAUKEE      LGT RAIN  61  53  75 S9        29.50F
KENOSHA*       MOCLDY    61  52  72 SE8       29.49F
RACINE*        CLOUDY    56  48  74 S13       29.52F
WEST BEND      CLOUDY    59  52  77 SE3       29.50F
$$

INZ001>003-010>013-019-020-260900-
NORTHWEST INDIANA

CITY           SKY/WX    TMP DP  RH WIND       PRES   REMARKS
GARY*          CLOUDY    68  53  59 SE8G18    29.53F
MICHIGAN CITY* NOT AVBL
RENSSELAER*    NOT AVBL
VALPARAISO     CLOUDY    66  56  70 SE10      29.56F
$$

LMZ740>746-260900-
SOUTHERN LAKE MICHIGAN

STATION/POSITION TIME  SKY/WX   TEMP WIND        PRES    VSBY
                                AIR  DIR/SP/G
                 (UTC)          (F)  (DEG/KT/KT) (MB)    (MI)
HARRISON CRIB    0730            61  160/ 17/ 18   N/A
BURNHAM HARBOR   0800            65  150/  8/ 12   N/A
CALUMET HARBOR   0730            67  150/  7/ 11  999.3F
BURNS HARBOR     0740            68  160/ 10/ 19 1000.7F
MICHIGAN CITY    0740            66  150/ 10/ 12   N/A
$$

ABBREVIATIONS USED IN REMARKS
   TC - TEMPERATURE IN CELSIUS
  WCI - WIND CHILL INDEX
   HX - HEAT INDEX
  VSB - VISIBILITY
$$




USA.gov is the U.S. government's official web portal to all federal, state and local government web resources and services.